星链-36428(STARLINK-36428)
导读
STARLINK-36428是美国SpaceX星链计划中的一颗卫星,于2026年1月9日发射升空。作为星链星座的组成部分,它旨在为全球提供低延迟、高速率的宽带互联网服务,尤其覆盖偏远地区与网络基础设施薄弱区域,进一步扩充星链星座规模,推进全球卫星互联网组网布局。
Basic Information
目录编号:
67362
目录名称:
STARLINK-36428
国际标识:
2026-003AE
轨道中心:
EARTH
卫星名称:
星链-36428
卫星全名:
星链-36428(STARLINK-36428)
卫星状态:
在轨 (已飞行239 天)
发射日期:
2026-01-09 UTC
国别 :
美国
(US)
星等 :
--
Orbit Information
| 数据来源 | 国际轨道数据 | AOE轨道数据 |
| 星历时间 | 2026-09-04T10:52:12+0800 1天前 查看轨道信息 | 2026-09-03T02:00:00+0800 2天前 查看轨道信息 |
| 半长轴 | 6861.246km | 6861.115km |
| 偏心率 | 0.0001178 | 0.0001465 |
| 轨道倾角 | 43.002° | 42.999° |
| 近地点辐角 | 242.102° | 286.764° |
| 升交点赤经 | 299.278° | 307.015° |
| 平近点角 | 117.971° | 92.809° |
| 近地点 | 482.3km | 481.972km |
| 远地点 | 483.918km | 483.984km |
| 周期 | 94.268分钟 | 94.265分钟 |
| 每日圈数 | 15.275601 | 15.276039 |
Detailed Information
固有亮度:
5
最大亮度:
2.5
卫星平台:
Starlink V1.0
覆盖范围:
全球
运营商:
太空探索技术公司
运营商所在国:
美国
制造商(研发单位):
太空探索技术公司
制造商所在国:
美国
使用方式:
暂无
Satellite Introduction
Starlink 计划是 SpaceX 推出的全球卫星互联网项目,通过发射低轨道卫星,为全球尤其是偏远地区提供高速、低延迟的互联网服务。自 2019 年起,Starlink 已部署数千颗卫星,旨在缩小全球数字鸿沟,推动互联网普及。该项目还为军事、航空等行业提供通信支持,带来广泛经济效益。
2D Orbit Map
3D Orbit Map
Orbit Altitude Analysis Chart
Orbit Inclination Analysis Chart
Orbit Comprehensive Analysis Chart
View Comprehensive ChartConjunction Data List
| Event ID | Objects | TCA | Miss Dist (km) | Collision Risk Probability | Collision Risk Index (CRI) | Action |
|---|---|---|---|---|---|---|
| CDM_260906-154605-824306-736221 |
STARLINK-30864
(58243)
STARLINK-36428
(67362) | 2026-09-06T 15:46:38+0000 |
0.164 km
中距离 | 6.8851E-4 高风险 | 0.92 | |
| CDM_260906-210005-812906-736222 |
STARLINK-30756
(58129)
STARLINK-36428
(67362) | 2026-09-06T 21:00:22+0000 |
0.377 km
远距离 | 2.554604E-4 高风险 | 0.83 | |
| CDM_260907-044305-807806-736221 |
STARLINK-30597
(58078)
STARLINK-36428
(67362) | 2026-09-07T 04:43:02+0000 |
0.470 km
远距离 | 1.877026E-4 高风险 | 0.8 | |
| CDM_260906-150406-289406-736221 |
STARLINK-32909
(62894)
STARLINK-36428
(67362) | 2026-09-06T 15:04:18+0000 |
0.628 km
远距离 | 7.719292E-5 中风险 | 0.73 | |
| CDM_260906-000006-328506-736221 |
STARLINK-33662
(63285)
STARLINK-36428
(67362) | 2026-09-06T 00:00:38+0000 |
0.622 km
远距离 | 2.722495E-5 中风险 | 0.64 | |
| CDM_260906-031806-289406-736221 |
STARLINK-32909
(62894)
STARLINK-36428
(67362) | 2026-09-06T 03:18:08+0000 |
1.064 km
极远距离 | 1.406136E-5 中风险 | 0.58 | |
| CDM_260907-015805-824306-736221 |
STARLINK-30864
(58243)
STARLINK-36428
(67362) | 2026-09-07T 01:58:40+0000 |
0.975 km
远距离 | 1.395519E-5 中风险 | 0.58 | |
| CDM_260907-061705-807806-736221 |
STARLINK-30597
(58078)
STARLINK-36428
(67362) | 2026-09-07T 06:17:12+0000 |
1.247 km
极远距离 | 9.587624E-6 低风险 | 0.55 | |
| CDM_260906-223405-812906-736222 |
STARLINK-30756
(58129)
STARLINK-36428
(67362) | 2026-09-06T 22:34:31+0000 |
1.220 km
极远距离 | 8.554268E-6 低风险 | 0.54 | |
| CDM_260907-002405-824306-736221 |
STARLINK-30864
(58243)
STARLINK-36428
(67362) | 2026-09-07T 00:24:31+0000 |
1.140 km
极远距离 | 8.158667E-6 低风险 | 0.53 |

